Horseshoe Bay, TX

3:18 PM MDT on September 19, 2017 (GMT -0600)
Horseshoe Bay

Weather History for KDZB - November, 2013

Change the Weather History Date:

Saturday, November 2, 2013

  Actual Average (KBMQ) Record (KBMQ)
Temperature  
Mean Temperature 58 °F -  
Max Temperature 72 °F 69 °F 84 °F (2016)
Min Temperature 44 °F 50 °F 39 °F (1999)
Degree Days  
Heating Degree Days 7    
Growing Degree Days 8 (Base 50)    
Moisture  
Dew Point 37 °F    
Average Humidity 52    
Maximum Humidity 81    
Minimum Humidity 20    
Precipitation  
Precipitation 0.00 in - - ()
Sea Level Pressure  
Sea Level Pressure 30.23 in    
Wind  
Wind Speed 4 mph (NNW)    
Max Wind Speed 14 mph    
Max Gust Speed 18 mph    
Visibility 10 miles    
Events      
Averages and records for this station are not official NWS values.
T = Trace of Precipitation, MM = Missing Value Source: NWS Daily Summary

Daily Weather History Graph

Daily Weather History Graph

Search for Another Location

Airport or City:

Trip Planner

Search our weather history database for the weather conditions in past years. The results will help you decide how hot, cold, wet, or windy it might be!

Date:

Astronomy

Nov. 02, 2013 Rise Set
Actual Time 6:49 AM MDT 5:44 PM MDT
Civil Twilight 6:24 AM MDT 6:09 PM MDT
Nautical Twilight 5:55 AM MDT 6:37 PM MDT
Astronomical Twilight 5:27 AM MDT 7:06 PM MDT
Moon 5:50 AM MDT (11/2) 5:15 PM MDT (11/2)
Length of Visible Light 11h 45m
Length of Day
10h 55m
Waning Crescent, 1% of the Moon is Illuminated
Nov 2
Waning Crescent
Nov 3
New
Nov 9
First Quarter
Nov 17
Full
Nov 25
Last Quarter

Hourly Weather History & Observations

Time (MDT) Temp. Windchill Dew Point Humidity Pressure Visibility Wind Dir Wind Speed Gust Speed Precip Events Conditions
12:15 AM 58.8 °F - 42.4 °F 55% 30.13 in 10.0 mi WNW 3.5 mph - N/A   Clear
12:35 AM 57.2 °F - 41.9 °F 57% 30.14 in 10.0 mi West 3.5 mph - N/A   Clear
12:55 AM 57.4 °F - 41.9 °F 56% 30.15 in 10.0 mi WNW 4.6 mph - N/A   Clear
1:15 AM 57.2 °F - 41.2 °F 55% 30.15 in 10.0 mi NW 3.5 mph - N/A   Clear
1:35 AM 56.5 °F - 41.5 °F 57% 30.16 in 10.0 mi NW 4.6 mph - N/A   Clear
1:55 AM 56.5 °F - 41.9 °F 58% 30.17 in 10.0 mi NW 4.6 mph - N/A   Clear
2:15 AM 56.3 °F - 41.9 °F 59% 30.18 in 10.0 mi NW 3.5 mph - N/A   Clear
2:35 AM 55.4 °F - 42.1 °F 61% 30.18 in 10.0 mi NW 3.5 mph - N/A   Clear
2:55 AM 54.7 °F - 41.9 °F 62% 30.19 in 10.0 mi NW 3.5 mph - N/A   Clear
3:15 AM 54.7 °F - 41.2 °F 60% 30.19 in 10.0 mi NW 4.6 mph - N/A   Clear
3:35 AM 53.6 °F - 41.0 °F 62% 30.20 in 10.0 mi Calm Calm - N/A   Clear
3:55 AM 53.2 °F - 41.0 °F 63% 30.20 in 10.0 mi Calm Calm - N/A   Clear
4:15 AM 53.2 °F - 40.8 °F 63% 30.20 in 10.0 mi Calm Calm - N/A   Clear
4:35 AM 51.8 °F - 40.6 °F 66% 30.20 in 10.0 mi NW 3.5 mph - N/A   Clear
4:55 AM 51.8 °F - 40.1 °F 64% 30.20 in 10.0 mi NW 4.6 mph - N/A   Clear
5:15 AM 52.3 °F - 39.6 °F 62% 30.22 in 10.0 mi WNW 3.5 mph - N/A   Clear
5:35 AM 51.1 °F - 39.6 °F 65% 30.22 in 10.0 mi WNW 3.5 mph - N/A   Clear
5:55 AM 46.9 °F - 39.2 °F 74% 30.23 in 10.0 mi Calm Calm - N/A   Clear
6:15 AM 45.3 °F - 39.4 °F 80% 30.24 in 10.0 mi Calm Calm - N/A   Clear
6:35 AM 44.6 °F - 38.8 °F 80% 30.25 in 10.0 mi Calm Calm - N/A   Clear
6:55 AM 45.1 °F - 38.7 °F 78% 30.25 in 10.0 mi Calm Calm - N/A   Clear
7:15 AM 46.2 °F - 38.5 °F 74% 30.26 in 10.0 mi Calm Calm - N/A   Clear
7:35 AM 50.9 °F - 38.1 °F 62% 30.27 in 10.0 mi West 3.5 mph - N/A   Clear
7:55 AM 55.0 °F - 37.2 °F 51% 30.28 in 10.0 mi Calm Calm - N/A   Clear
8:15 AM 57.0 °F - 37.4 °F 48% 30.30 in 10.0 mi West 4.6 mph - N/A   Clear
8:35 AM 58.1 °F - 37.0 °F 45% 30.30 in 10.0 mi WNW 3.5 mph - N/A   Clear
8:55 AM 59.5 °F - 38.5 °F 46% 30.31 in 10.0 mi WNW 4.6 mph - N/A   Clear
9:15 AM 60.1 °F - 37.0 °F 42% 30.32 in 10.0 mi NNW 6.9 mph - N/A   Clear
9:35 AM 61.9 °F - 38.1 °F 41% 30.32 in 10.0 mi NW 6.9 mph - N/A   Clear
9:55 AM 63.5 °F - 38.1 °F 39% 30.32 in 10.0 mi North 4.6 mph - N/A   Clear
11:15 AM 68.4 °F - 33.6 °F 28% 30.31 in 10.0 mi North 5.8 mph - N/A   Clear
11:35 AM 69.1 °F - 32.5 °F 26% 30.31 in 10.0 mi NNW 13.8 mph - N/A   Clear
11:55 AM 69.6 °F - 29.7 °F 23% 30.30 in 10.0 mi NNW 11.5 mph - N/A   Clear
12:15 PM 70.2 °F - 30.4 °F 23% 30.29 in 10.0 mi North 9.2 mph 18.4 mph N/A   Clear
12:35 PM 71.2 °F - 31.3 °F 23% 30.28 in 10.0 mi NNW 9.2 mph - N/A   Clear
12:55 PM 71.1 °F - 30.7 °F 22% 30.27 in 10.0 mi North 6.9 mph - N/A   Clear
1:15 PM 71.6 °F - 31.5 °F 23% 30.26 in 10.0 mi NNW 6.9 mph 16.1 mph N/A   Clear
1:35 PM 71.6 °F - 31.5 °F 23% 30.25 in 10.0 mi NW 4.6 mph - N/A   Clear
1:55 PM 71.8 °F - 31.6 °F 23% 30.24 in 10.0 mi North 6.9 mph - N/A   Clear
2:15 PM 72.0 °F - 30.7 °F 22% 30.23 in 10.0 mi NNW 5.8 mph - N/A   Clear
2:35 PM 72.5 °F - 30.6 °F 21% 30.22 in 10.0 mi North 6.9 mph - N/A   Clear
2:55 PM 72.5 °F - 29.1 °F 20% 30.21 in 10.0 mi North 4.6 mph - N/A   Clear
3:15 PM 72.1 °F - 29.5 °F 21% 30.21 in 10.0 mi NE 8.1 mph - N/A   Clear
3:35 PM 71.8 °F - 30.0 °F 21% 30.20 in 10.0 mi NNE 6.9 mph - N/A   Clear
3:55 PM 71.6 °F - 29.8 °F 21% 30.20 in 10.0 mi NNE 5.8 mph - N/A   Clear
4:15 PM 70.9 °F - 30.9 °F 23% 30.20 in 10.0 mi North 4.6 mph - N/A   Clear
4:35 PM 70.0 °F - 31.1 °F 24% 30.20 in 10.0 mi North 4.6 mph - N/A   Clear
4:55 PM 69.1 °F - 31.1 °F 24% 30.20 in 10.0 mi North 5.8 mph - N/A   Clear
5:15 PM 67.5 °F - 32.0 °F 27% 30.20 in 10.0 mi NNE 3.5 mph - N/A   Clear
5:35 PM 65.5 °F - 32.9 °F 30% 30.20 in 10.0 mi Calm Calm - N/A   Clear
5:55 PM 60.3 °F - 35.2 °F 39% 30.20 in 10.0 mi Calm Calm - N/A   Clear
6:15 PM 55.8 °F - 39.4 °F 54% 30.21 in 10.0 mi Calm Calm - N/A   Clear
6:35 PM 53.6 °F - 41.0 °F 62% 30.21 in 10.0 mi Calm Calm - N/A   Clear
6:55 PM 51.3 °F - 41.5 °F 69% 30.21 in 10.0 mi Calm Calm - N/A   Clear
7:15 PM 50.7 °F - 42.1 °F 72% 30.22 in 10.0 mi Calm Calm - N/A   Clear
7:35 PM 50.0 °F - 41.7 °F 73% 30.22 in 10.0 mi Calm Calm - N/A   Clear
7:55 PM 49.5 °F - 41.2 °F 73% 30.23 in 10.0 mi SE 3.5 mph - N/A   Clear
8:15 PM 49.3 °F - 40.3 °F 71% 30.23 in 10.0 mi SE 3.5 mph - N/A   Clear
8:35 PM 48.6 °F - 39.7 °F 72% 30.23 in 10.0 mi SSE 3.5 mph - N/A   Clear
8:55 PM 48.2 °F - 39.6 °F 72% 30.24 in 10.0 mi South 3.5 mph - N/A   Clear
9:15 PM 47.7 °F - 39.7 °F 74% 30.24 in 10.0 mi South 3.5 mph - N/A   Clear
9:35 PM 46.6 °F - 39.7 °F 77% 30.24 in 10.0 mi South 3.5 mph - N/A   Clear
9:55 PM 46.2 °F 45.0 °F 39.9 °F 79% 30.24 in 10.0 mi SSE 3.5 mph - N/A   Clear
10:15 PM 47.5 °F - 38.3 °F 70% 30.24 in 10.0 mi SSE 4.6 mph - N/A   Clear
10:35 PM 50.0 °F - 37.0 °F 61% 30.24 in 10.0 mi South 3.5 mph - N/A   Clear
10:55 PM 49.5 °F - 37.8 °F 64% 30.24 in 10.0 mi South 3.5 mph - N/A   Clear
11:15 PM 46.4 °F - 39.4 °F 77% 30.24 in 10.0 mi Calm Calm - N/A   Clear
11:35 PM 45.5 °F - 39.6 °F 80% 30.24 in 10.0 mi Calm Calm - N/A   Clear
11:55 PM 44.6 °F - 39.2 °F 81% 30.23 in 10.0 mi Calm Calm - N/A   Clear